TimeEDT,TemperatureF,Dew PointF,Humidity,Sea Level PressureIn,VisibilityMPH,Wind Direction,Wind SpeedMPH,Gust SpeedMPH,PrecipitationIn,Events,Conditions,WindDirDegrees,DateUTC
12:53 AM,59.0,53.1,81,30.01,10.0,North,10.4,-,N/A,,Clear,350,2012-09-19 04:53:00
1:53 AM,59.0,48.0,67,30.01,10.0,North,11.5,-,N/A,,Clear,360,2012-09-19 05:53:00
2:53 AM,57.0,46.9,69,30.02,10.0,North,6.9,-,N/A,,Clear,10,2012-09-19 06:53:00
3:53 AM,55.0,46.0,72,30.01,10.0,NNW,5.8,-,N/A,,Clear,330,2012-09-19 07:53:00
4:53 AM,54.0,45.0,72,30.02,10.0,NNW,4.6,-,N/A,,Clear,340,2012-09-19 08:53:00
5:53 AM,55.9,44.1,64,30.03,10.0,North,8.1,-,N/A,,Clear,360,2012-09-19 09:53:00
6:53 AM,55.0,43.0,64,30.05,10.0,North,9.2,-,N/A,,Clear,10,2012-09-19 10:53:00
7:53 AM,53.1,46.0,77,30.08,10.0,NW,3.5,-,N/A,,Clear,320,2012-09-19 11:53:00
8:53 AM,59.0,45.0,60,30.08,10.0,North,12.7,-,N/A,,Clear,360,2012-09-19 12:53:00
9:53 AM,63.0,48.0,58,30.10,10.0,NE,12.7,-,N/A,,Clear,40,2012-09-19 13:53:00
10:53 AM,64.9,48.9,56,30.11,10.0,North,10.4,-,N/A,,Clear,10,2012-09-19 14:53:00
11:53 AM,68.0,48.9,50,30.12,10.0,NNE,13.8,19.6,N/A,,Clear,30,2012-09-19 15:53:00
12:53 PM,71.1,51.1,49,30.11,10.0,North,13.8,-,N/A,,Clear,360,2012-09-19 16:53:00
1:53 PM,71.1,51.1,49,30.10,10.0,North,10.4,20.7,N/A,,Clear,360,2012-09-19 17:53:00
2:53 PM,72.0,51.1,48,30.07,10.0,NNW,11.5,16.1,N/A,,Clear,340,2012-09-19 18:53:00
3:53 PM,73.0,51.1,46,30.06,10.0,NNW,8.1,-,N/A,,Clear,330,2012-09-19 19:53:00
4:53 PM,73.9,51.1,45,30.06,10.0,NE,5.8,-,N/A,,Clear,50,2012-09-19 20:53:00
5:53 PM,73.9,46.9,38,30.06,10.0,NNE,5.8,-,N/A,,Clear,30,2012-09-19 21:53:00
6:53 PM,73.0,48.0,41,30.05,10.0,NNE,6.9,-,N/A,,Clear,30,2012-09-19 22:53:00
7:53 PM,66.0,53.1,63,30.06,10.0,NNW,3.5,-,N/A,,Clear,340,2012-09-19 23:53:00
8:53 PM,64.4,53.6,68,30.08,10.0,Calm,Calm,-,N/A,,Clear,0,2012-09-20 00:53:00
9:53 PM,61.0,55.0,81,30.09,10.0,Calm,Calm,-,N/A,,Clear,0,2012-09-20 01:53:00
10:53 PM,59.0,55.0,87,30.09,10.0,Calm,Calm,-,N/A,,Clear,0,2012-09-20 02:53:00
11:53 PM,59.0,55.0,87,30.10,10.0,Calm,Calm,-,N/A,,Clear,0,2012-09-20 03:53:00